| time (UTC) | temp F | wind direction | speed knots | gust knots | rain 1hr in | rain 24hr in | rain mn in | humidity % | barometer mb |
| 20260503045654 | 33 | 69 | 2.6 | 5.2 | 0.00 | 0.00 | 0.00 | 81 | 1009.4 |
| 20260503045152 | 34 | 72 | 4.3 | 8.7 | 0.00 | 0.00 | 0.00 | 80 | 1009.4 |
| 20260503044652 | 34 | 65 | 3.5 | 1.7 | 0.00 | 0.00 | 0.00 | 80 | 1009.4 |
| 20260503044152 | 34 | 75 | 3.5 | 3.5 | 0.00 | 0.00 | 0.00 | 79 | 1009.4 |
| 20260503043653 | 34 | 97 | 5.2 | 4.3 | 0.00 | 0.00 | 0.00 | 79 | 1009.4 |
| 20260503043153 | 34 | 93 | 4.3 | 7.0 | 0.00 | 0.00 | 0.00 | 79 | 1009.4 |
| 20260503042653 | 34 | 131 | 5.2 | 4.3 | 0.00 | 0.00 | 0.00 | 79 | 1009.3 |
| 20260503042151 | 34 | 82 | 4.3 | 7.8 | 0.00 | 0.00 | 0.00 | 78 | 1009.2 |
| 20260503041651 | 34 | 97 | 5.2 | 3.5 | 0.00 | 0.00 | 0.00 | 78 | 1009.2 |
| 20260503041152 | 34 | 66 | 3.5 | 7.0 | 0.00 | 0.00 | 0.00 | 79 | 1009.2 |
| 20260503040652 | 35 | 49 | 5.2 | 4.3 | 0.00 | 0.00 | 0.00 | 79 | 1009.1 |
| 20260503040152 | 35 | 84 | 4.3 | 2.6 | 0.00 | 0.00 | 0.00 | 79 | 1009.1 |
| 20260503035653 | 35 | 94 | 4.3 | 4.3 | 0.00 | 0.00 | 0.00 | 78 | 1009.0 |
| 20260503035150 | 35 | 79 | 6.1 | 8.7 | 0.00 | 0.00 | 0.00 | 78 | 1008.9 |
| 20260503034650 | 35 | 111 | 3.5 | 5.2 | 0.00 | 0.00 | 0.00 | 78 | 1008.8 |
| 20260503034151 | 35 | 94 | 5.2 | 2.6 | 0.00 | 0.00 | 0.00 | 78 | 1008.7 |
| 20260503033651 | 35 | 152 | 3.5 | 2.6 | 0.00 | 0.00 | 0.00 | 79 | 1008.7 |
| 20260503033151 | 35 | 75 | 5.2 | 4.3 | 0.00 | 0.00 | 0.00 | 78 | 1008.6 |
| 20260503032652 | 35 | 91 | 2.6 | 2.6 | 0.00 | 0.00 | 0.00 | 78 | 1008.5 |
| 20260503032149 | 36 | 76 | 2.6 | 4.3 | 0.00 | 0.00 | 0.00 | 78 | 1008.4 |
| 20260503031650 | 36 | 60 | 5.2 | 4.3 | 0.00 | 0.00 | 0.00 | 77 | 1008.3 |
| 20260503031150 | 36 | 87 | 3.5 | 5.2 | 0.00 | 0.00 | 0.00 | 77 | 1008.3 |
| 20260503030650 | 36 | 60 | 2.6 | 5.2 | 0.00 | 0.00 | 0.00 | 77 | 1008.1 |
| 20260503030150 | 36 | 124 | 6.1 | 3.5 | 0.00 | 0.00 | 0.00 | 76 | 1008.0 |
| 20260503025651 | 36 | 111 | 3.5 | 4.3 | 0.00 | 0.00 | 0.00 | 75 | 1008.0 |
| 20260503025148 | 36 | 79 | 3.5 | 1.7 | 0.00 | 0.00 | 0.00 | 75 | 1008.0 |
| 20260503024649 | 36 | 90 | 4.3 | 3.5 | 0.00 | 0.00 | 0.00 | 75 | 1008.0 |
| 20260503024149 | 36 | 80 | 0.0 | 0.0 | 0.00 | 0.00 | 0.00 | 75 | 1007.9 |
| 20260503023650 | 36 | 80 | 0.0 | 0.0 | 0.00 | 0.00 | 0.00 | 74 | 1007.8 |
| 20260503023150 | 36 | 80 | 2.6 | 0.0 | 0.00 | 0.00 | 0.00 | 74 | 1007.8 |
| 20260503022650 | 36 | 124 | 4.3 | 5.2 | 0.00 | 0.00 | 0.00 | 74 | 1007.9 |
| 20260503022148 | 36 | 128 | 4.3 | 2.6 | 0.00 | 0.00 | 0.00 | 74 | 1008.1 |
| 20260503021648 | 37 | 75 | 4.3 | 2.6 | 0.00 | 0.00 | 0.00 | 74 | 1008.1 |
| 20260503021149 | 37 | 97 | 4.3 | 3.5 | 0.00 | 0.00 | 0.00 | 73 | 1008.0 |
| 20260503020649 | 37 | 69 | 4.3 | 5.2 | 0.00 | 0.00 | 0.00 | 73 | 1007.8 |
| 20260503020150 | 37 | 105 | 4.3 | 2.6 | 0.00 | 0.00 | 0.00 | 72 | 1007.8 |
| 20260503015650 | 37 | 87 | 6.1 | 1.7 | 0.00 | 0.00 | 0.00 | 72 | 1007.7 |
| 20260503015148 | 38 | 97 | 5.2 | 4.3 | 0.00 | 0.00 | 0.00 | 72 | 1007.7 |
| 20260503014648 | 38 | 77 | 3.5 | 5.2 | 0.00 | 0.00 | 0.00 | 71 | 1007.7 |
| 20260503014148 | 38 | 101 | 5.2 | 3.5 | 0.00 | 0.00 | 0.00 | 71 | 1007.5 |
| 20260503013649 | 38 | 48 | 5.2 | 3.5 | 0.00 | 0.00 | 0.00 | 70 | 1007.5 |
| 20260503013149 | 39 | 128 | 6.1 | 6.1 | 0.00 | 0.00 | 0.00 | 70 | 1007.6 |
| 20260503012650 | 39 | 117 | 4.3 | 4.3 | 0.00 | 0.00 | 0.00 | 70 | 1007.6 |
| 20260503012148 | 39 | 84 | 4.3 | 4.3 | 0.00 | 0.00 | 0.00 | 70 | 1007.7 |
| 20260503011648 | 39 | 128 | 5.2 | 2.6 | 0.00 | 0.00 | 0.00 | 69 | 1007.8 |
| 20260503011149 | 39 | 148 | 3.5 | 5.2 | 0.00 | 0.00 | 0.00 | 69 | 1007.6 |
| 20260503010649 | 39 | 68 | 3.5 | 5.2 | 0.00 | 0.00 | 0.00 | 69 | 1007.5 |
| 20260503010149 | 39 | 97 | 4.3 | 7.8 | 0.00 | 0.00 | 0.00 | 69 | 1007.3 |
| 20260503005650 | 39 | 100 | 5.2 | 4.3 | 0.00 | 0.00 | 0.00 | 69 | 1007.3 |
| 20260503005148 | 39 | 76 | 3.5 | 4.3 | 0.00 | 0.00 | 0.00 | 69 | 1007.3 |
| 20260503004648 | 39 | 35 | 5.2 | 7.8 | 0.00 | 0.00 | 0.00 | 68 | 1006.9 |
| 20260503004148 | 40 | 65 | 5.2 | 5.2 | 0.00 | 0.00 | 0.00 | 68 | 1006.5 |
| 20260503003649 | 40 | 83 | 4.3 | 2.6 | 0.00 | 0.00 | 0.00 | 67 | 1006.2 |
| 20260503003149 | 40 | 44 | 6.1 | 4.3 | 0.00 | 0.00 | 0.00 | 67 | 1005.9 |
| 20260503002650 | 40 | 155 | 3.5 | 6.1 | 0.00 | 0.00 | 0.00 | 66 | 1006.1 |
| 20260503002147 | 40 | 100 | 5.2 | 2.6 | 0.00 | 0.00 | 0.00 | 66 | 1006.3 |
| 20260503001648 | 41 | 162 | 5.2 | 5.2 | 0.00 | 0.00 | 0.00 | 65 | 1006.4 |
| 20260503001148 | 41 | 141 | 3.5 | 3.5 | 0.00 | 0.00 | 0.00 | 65 | 1006.5 |
| 20260503000649 | 41 | 115 | 4.3 | 1.7 | 0.00 | 0.00 | 0.00 | 64 | 1006.4 |
| 20260503000149 | 41 | 63 | 2.6 | 8.7 | 0.00 | 0.00 | 0.00 | 64 | 1006.5 |
| 20260502235650 | 41 | 180 | 4.3 | 7.0 | 0.00 | 0.00 | 0.00 | 63 | 1006.2 |
| 20260502235147 | 42 | 63 | 3.5 | 2.6 | 0.00 | 0.00 | 0.00 | 63 | 1006.1 |
| 20260502234648 | 42 | 90 | 4.3 | 4.3 | 0.00 | 0.00 | 0.00 | 62 | 1006.1 |
| 20260502234148 | 42 | 117 | 3.5 | 6.1 | 0.00 | 0.00 | 0.00 | 62 | 1006.2 |
| 20260502233648 | 42 | 49 | 3.5 | 4.3 | 0.00 | 0.00 | 0.00 | 61 | 1006.3 |
| 20260502233149 | 43 | 93 | 4.3 | 6.1 | 0.00 | 0.00 | 0.00 | 61 | 1006.4 |
| 20260502232649 | 43 | 107 | 3.5 | 1.7 | 0.00 | 0.00 | 0.00 | 60 | 1006.4 |
| 20260502232147 | 44 | 174 | 3.5 | 2.6 | 0.00 | 0.00 | 0.00 | 59 | 1006.4 |
| 20260502231647 | 44 | 103 | 3.5 | 2.6 | 0.00 | 0.00 | 0.00 | 59 | 1006.5 |
| 20260502231148 | 44 | 113 | 2.6 | 4.3 | 0.00 | 0.00 | 0.00 | 59 | 1006.6 |
| 20260502230648 | 44 | 148 | 4.3 | 2.6 | 0.00 | 0.00 | 0.00 | 58 | 1006.7 |
| 20260502230149 | 44 | 169 | 3.5 | 3.5 | 0.00 | 0.00 | 0.00 | 58 | 1007.1 |
| 20260502225649 | 44 | 91 | 2.6 | 1.7 | 0.00 | 0.00 | 0.00 | 58 | 1007.1 |
| 20260502225147 | 44 | 93 | 5.2 | 3.5 | 0.00 | 0.00 | 0.00 | 57 | 1007.1 |
| 20260502224648 | 44 | 93 | 4.3 | 5.2 | 0.00 | 0.00 | 0.00 | 57 | 1007.1 |
| 20260502224148 | 44 | 82 | 4.3 | 4.3 | 0.00 | 0.00 | 0.00 | 57 | 1007.1 |
| 20260502223648 | 44 | 124 | 3.5 | 5.2 | 0.00 | 0.00 | 0.00 | 58 | 1007.2 |
| 20260502223149 | 43 | 148 | 4.3 | 4.3 | 0.00 | 0.00 | 0.00 | 58 | 1007.2 |
| 20260502222649 | 43 | 115 | 4.3 | 6.1 | 0.00 | 0.00 | 0.00 | 59 | 1007.2 |
| 20260502222147 | 43 | 107 | 4.3 | 1.7 | 0.00 | 0.00 | 0.00 | 59 | 1007.3 |
| 20260502221647 | 42 | 103 | 5.2 | 4.3 | 0.00 | 0.00 | 0.00 | 60 | 1007.3 |
| 20260502221148 | 43 | 125 | 4.3 | 3.5 | 0.00 | 0.00 | 0.00 | 59 | 1007.4 |
| 20260502220648 | 42 | 135 | 5.2 | 6.1 | 0.00 | 0.00 | 0.00 | 60 | 1007.4 |
| 20260502220148 | 43 | 187 | 5.2 | 4.3 | 0.00 | 0.00 | 0.00 | 59 | 1007.4 |
| 20260502215649 | 43 | 139 | 4.3 | 5.2 | 0.00 | 0.00 | 0.00 | 60 | 1007.5 |
| 20260502215147 | 43 | 159 | 5.2 | 1.7 | 0.00 | 0.00 | 0.00 | 60 | 1007.6 |
| 20260502214647 | 43 | 156 | 4.3 | 6.1 | 0.00 | 0.00 | 0.00 | 60 | 1007.8 |
| 20260502214147 | 43 | 245 | 4.3 | 8.7 | 0.00 | 0.00 | 0.00 | 59 | 1007.8 |
| 20260502213648 | 43 | 156 | 2.6 | 5.2 | 0.00 | 0.00 | 0.00 | 60 | 1007.8 |
| 20260502213148 | 43 | 108 | 6.1 | 5.2 | 0.00 | 0.00 | 0.00 | 59 | 1007.9 |
| 20260502212649 | 43 | 135 | 4.3 | 3.5 | 0.00 | 0.00 | 0.00 | 59 | 1008.0 |
| 20260502212146 | 43 | 229 | 4.3 | 4.3 | 0.00 | 0.00 | 0.00 | 59 | 1008.0 |
| 20260502211647 | 43 | 155 | 4.3 | 6.1 | 0.00 | 0.00 | 0.00 | 59 | 1008.0 |
| 20260502211147 | 43 | 100 | 4.3 | 4.3 | 0.00 | 0.00 | 0.00 | 59 | 1008.1 |
| 20260502210648 | 43 | 226 | 2.6 | 6.1 | 0.00 | 0.00 | 0.00 | 59 | 1008.1 |
| 20260502210148 | 44 | 141 | 3.5 | 5.2 | 0.00 | 0.00 | 0.00 | 58 | 1008.2 |
| 20260502205649 | 43 | 150 | 4.3 | 1.7 | 0.00 | 0.00 | 0.00 | 59 | 1008.3 |
| 20260502205146 | 43 | 113 | 4.3 | 1.7 | 0.00 | 0.00 | 0.00 | 59 | 1008.5 |
| 20260502204647 | 43 | 120 | 5.2 | 7.0 | 0.00 | 0.00 | 0.00 | 59 | 1008.7 |
| 20260502204147 | 43 | 186 | 4.3 | 6.1 | 0.00 | 0.00 | 0.00 | 59 | 1008.7 |
| 20260502203647 | 44 | 128 | 4.3 | 7.0 | 0.00 | 0.00 | 0.00 | 58 | 1008.8 |
| 20260502203148 | 44 | 165 | 4.3 | 7.0 | 0.00 | 0.00 | 0.00 | 57 | 1008.9 |
| 20260502202648 | 44 | 152 | 2.6 | 2.6 | 0.00 | 0.00 | 0.00 | 58 | 1009.1 |
| 20260502202146 | 44 | 110 | 2.6 | 4.3 | 0.00 | 0.00 | 0.00 | 59 | 1009.2 |
| 20260502201646 | 43 | 159 | 5.2 | 4.3 | 0.00 | 0.00 | 0.00 | 59 | 1009.2 |
| 20260502201147 | 43 | 104 | 4.3 | 5.2 | 0.00 | 0.00 | 0.00 | 59 | 1009.2 |
| 20260502200647 | 43 | 87 | 5.2 | 3.5 | 0.00 | 0.00 | 0.00 | 59 | 1009.2 |
| 20260502200148 | 43 | 51 | 6.1 | 6.1 | 0.00 | 0.00 | 0.00 | 58 | 1009.3 |
| 20260502195648 | 43 | 84 | 5.2 | 2.6 | 0.00 | 0.00 | 0.00 | 59 | 1009.4 |
| 20260502195146 | 43 | 165 | 4.3 | 2.6 | 0.00 | 0.00 | 0.00 | 59 | 1009.4 |
| 20260502194646 | 43 | 149 | 2.6 | 2.6 | 0.00 | 0.00 | 0.00 | 60 | 1009.4 |
| 20260502194147 | 43 | 82 | 6.1 | 3.5 | 0.00 | 0.00 | 0.00 | 59 | 1009.5 |
| 20260502193647 | 43 | 125 | 6.1 | 3.5 | 0.00 | 0.00 | 0.00 | 59 | 1009.5 |
| 20260502193147 | 44 | 70 | 4.3 | 2.6 | 0.00 | 0.00 | 0.00 | 60 | 1009.5 |
| 20260502192648 | 44 | 96 | 4.3 | 6.1 | 0.00 | 0.00 | 0.00 | 58 | 1009.6 |
| 20260502192145 | 43 | 75 | 4.3 | 4.3 | 0.00 | 0.00 | 0.00 | 58 | 1009.7 |
| 20260502191646 | 43 | 127 | 4.3 | 5.2 | 0.00 | 0.00 | 0.00 | 58 | 1009.7 |
| 20260502191146 | 43 | 96 | 5.2 | 6.1 | 0.00 | 0.00 | 0.00 | 58 | 1009.8 |
| 20260502190647 | 43 | 131 | 4.3 | 3.5 | 0.00 | 0.00 | 0.00 | 58 | 1009.9 |
| 20260502190147 | 44 | 108 | 4.3 | 4.3 | 0.00 | 0.00 | 0.00 | 58 | 1009.9 |
| 20260502185647 | 44 | 145 | 4.3 | 5.2 | 0.00 | 0.00 | 0.00 | 58 | 1010.1 |
| 20260502185145 | 43 | 97 | 0.9 | 3.5 | 0.00 | 0.00 | 0.00 | 59 | 1010.2 |
| 20260502184646 | 43 | 107 | 4.3 | 3.5 | 0.00 | 0.00 | 0.00 | 59 | 1010.2 |
| 20260502184146 | 43 | 142 | 3.5 | 0.9 | 0.00 | 0.00 | 0.00 | 60 | 1010.2 |
| 20260502183646 | 42 | 215 | 5.2 | 1.7 | 0.00 | 0.00 | 0.00 | 59 | 1010.3 |
| 20260502183147 | 43 | 198 | 4.3 | 4.3 | 0.00 | 0.00 | 0.00 | 59 | 1010.4 |
| 20260502182647 | 42 | 125 | 3.5 | 6.1 | 0.00 | 0.00 | 0.00 | 61 | 1010.5 |
| 20260502182145 | 42 | 148 | 4.3 | 4.3 | 0.00 | 0.00 | 0.00 | 61 | 1010.6 |
| 20260502181645 | 42 | 204 | 5.2 | 4.3 | 0.00 | 0.00 | 0.00 | 61 | 1010.6 |
| 20260502181146 | 42 | 253 | 6.1 | 2.6 | 0.00 | 0.00 | 0.00 | 60 | 1010.8 |
| 20260502180646 | 42 | 233 | 2.6 | 5.2 | 0.00 | 0.00 | 0.00 | 61 | 1010.8 |
| 20260502180147 | 42 | 211 | 3.5 | 6.1 | 0.00 | 0.00 | 0.00 | 61 | 1010.9 |
| 20260502170146 | 41 | 124 | 3.5 | 5.2 | 0.00 | 0.00 | 0.00 | 61 | 1012.3 |
| 20260502164146 | 40 | 89 | 3.5 | 2.6 | 0.00 | 0.00 | 0.00 | 63 | 1012.7 |
| 20260502163646 | 40 | 121 | 4.3 | 4.3 | 0.00 | 0.00 | 0.00 | 63 | 1012.8 |
| 20260502163146 | 41 | 79 | 3.5 | 2.6 | 0.00 | 0.00 | 0.00 | 63 | 1013.0 |
| 20260502162647 | 40 | 138 | 4.3 | 3.5 | 0.00 | 0.00 | 0.00 | 62 | 1013.1 |
| 20260502162145 | 41 | 169 | 1.7 | 0.9 | 0.00 | 0.00 | 0.00 | 64 | 1013.3 |
| 20260502161645 | 40 | 103 | 2.6 | 5.2 | 0.00 | 0.00 | 0.00 | 64 | 1013.5 |
| 20260502161146 | 40 | 93 | 4.3 | 1.7 | 0.00 | 0.00 | 0.00 | 62 | 1013.6 |
| 20260502160646 | 40 | 100 | 3.5 | 1.7 | 0.00 | 0.00 | 0.00 | 63 | 1013.6 |
| 20260502160146 | 40 | 93 | 2.6 | 1.7 | 0.00 | 0.00 | 0.00 | 63 | 1013.8 |
| 20260502152144 | 39 | 114 | 4.3 | 1.7 | 0.00 | 0.00 | 0.00 | 65 | 1014.7 |
| 20260502151645 | 39 | 93 | 3.5 | 1.7 | 0.00 | 0.00 | 0.00 | 66 | 1014.8 |
| 20260502151145 | 39 | 104 | 4.3 | 2.6 | 0.00 | 0.00 | 0.00 | 65 | 1014.9 |
| 20260502150645 | 39 | 177 | 3.5 | 2.6 | 0.00 | 0.00 | 0.00 | 65 | 1015.1 |
| 20260502150146 | 39 | 120 | 2.6 | 1.7 | 0.00 | 0.00 | 0.00 | 66 | 1015.2 |
| 20260502130642 | 35 | 38 | 0.0 | 0.0 | 0.00 | 0.00 | 0.00 | 84 | 1017.7 |
| 20260502130142 | 33 | 38 | 0.0 | 0.0 | 0.00 | 0.00 | 0.00 | 87 | 1017.8 |
| 20260502123641 | 30 | 52 | 0.0 | 0.0 | 0.00 | 0.00 | 0.00 | 95 | 1018.2 |
| 20260502123141 | 30 | 52 | 0.0 | 0.0 | 0.00 | 0.00 | 0.00 | 94 | 1018.2 |
| 20260502122641 | 30 | 52 | 0.0 | 0.0 | 0.00 | 0.00 | 0.00 | 95 | 1018.3 |
| 20260502122138 | 30 | 55 | 0.0 | 0.0 | 0.00 | 0.00 | 0.00 | 95 | 1018.4 |
| 20260502121639 | 30 | 76 | 0.0 | 1.7 | 0.00 | 0.00 | 0.00 | 95 | 1018.4 |
| 20260502121139 | 30 | 48 | 0.0 | 0.0 | 0.00 | 0.00 | 0.00 | 95 | 1018.6 |
| 20260502120639 | 30 | 48 | 0.0 | 0.0 | 0.00 | 0.00 | 0.00 | 95 | 1018.6 |
| 20260502120139 | 30 | 48 | 0.0 | 0.0 | 0.00 | 0.00 | 0.00 | 95 | 1018.7 |
| 20260502115640 | 29 | 48 | 0.0 | 0.0 | 0.00 | 0.00 | 0.00 | 96 | 1018.8 |
| 20260502115137 | 28 | 31 | 0.0 | 0.0 | 0.00 | 0.00 | 0.00 | 96 | 1018.8 |
| 20260502114637 | 28 | 24 | 0.9 | 0.9 | 0.00 | 0.00 | 0.00 | 96 | 1018.9 |
| 20260502114138 | 28 | 49 | 0.9 | 1.7 | 0.00 | 0.00 | 0.00 | 96 | 1018.9 |
| 20260502113638 | 28 | 14 | 0.0 | 0.0 | 0.00 | 0.00 | 0.00 | 96 | 1019.0 |
| 20260502113138 | 28 | 14 | 0.0 | 0.0 | 0.00 | 0.00 | 0.00 | 96 | 1018.9 |
| 20260502112639 | 28 | 14 | 0.0 | 0.0 | 0.00 | 0.00 | 0.00 | 96 | 1018.9 |
| 20260502112136 | 28 | 42 | 0.9 | 0.9 | 0.00 | 0.00 | 0.00 | 96 | 1018.9 |
| 20260502111636 | 28 | 23 | 0.0 | 0.9 | 0.00 | 0.00 | 0.00 | 96 | 1019.0 |
| 20260502111136 | 28 | 13 | 0.9 | 0.9 | 0.00 | 0.00 | 0.00 | 96 | 1019.0 |
| 20260502110636 | 29 | 34 | 2.6 | 1.7 | 0.00 | 0.00 | 0.00 | 96 | 1018.9 |
| 20260502110137 | 29 | 49 | 2.6 | 2.6 | 0.00 | 0.00 | 0.00 | 96 | 1019.0 |
| 20260502105637 | 29 | 31 | 1.7 | 1.7 | 0.00 | 0.00 | 0.00 | 95 | 1018.9 |
| 20260502105134 | 29 | 31 | 2.6 | 1.7 | 0.00 | 0.00 | 0.00 | 95 | 1018.9 |
| 20260502104635 | 29 | 31 | 1.7 | 1.7 | 0.00 | 0.00 | 0.00 | 95 | 1019.0 |
| 20260502104135 | 29 | 48 | 0.9 | 0.9 | 0.00 | 0.00 | 0.00 | 95 | 1018.9 |
| 20260502103635 | 29 | 25 | 1.7 | 2.6 | 0.00 | 0.00 | 0.00 | 95 | 1018.9 |
| 20260502103135 | 29 | 18 | 1.7 | 1.7 | 0.00 | 0.00 | 0.00 | 95 | 1018.9 |
| 20260502102636 | 30 | 4 | 1.7 | 1.7 | 0.00 | 0.00 | 0.00 | 95 | 1018.8 |
| 20260502102133 | 30 | 30 | 2.6 | 2.6 | 0.00 | 0.00 | 0.00 | 95 | 1018.8 |
| 20260502101633 | 30 | 53 | 1.7 | 2.6 | 0.00 | 0.00 | 0.00 | 95 | 1018.7 |
| 20260502101133 | 30 | 38 | 2.6 | 1.7 | 0.00 | 0.00 | 0.00 | 95 | 1018.8 |
| 20260502100634 | 30 | 39 | 2.6 | 1.7 | 0.00 | 0.00 | 0.00 | 94 | 1018.7 |
| 20260502100134 | 30 | 46 | 3.5 | 3.5 | 0.00 | 0.00 | 0.00 | 95 | 1018.7 |
| 20260502091130 | 31 | 32 | 0.9 | 1.7 | 0.00 | 0.00 | 0.00 | 93 | 1018.3 |
| 20260502090631 | 31 | 28 | 2.6 | 1.7 | 0.00 | 0.00 | 0.00 | 93 | 1018.2 |
| 20260502090131 | 31 | 34 | 2.6 | 2.6 | 0.00 | 0.00 | 0.00 | 93 | 1018.1 |
| 20260502071125 | 32 | 305 | 2.6 | 2.6 | 0.00 | 0.00 | 0.00 | 93 | 1018.2 |
| 20260502070625 | 32 | 8 | 2.6 | 1.7 | 0.00 | 0.00 | 0.00 | 92 | 1018.1 |
| 20260502070125 | 32 | 11 | 1.7 | 0.9 | 0.00 | 0.00 | 0.00 | 91 | 1018.1 |
| 20260502065626 | 32 | 7 | 0.9 | 0.9 | 0.00 | 0.00 | 0.00 | 91 | 1018.1 |
| 20260502065123 | 32 | 7 | 2.6 | 1.7 | 0.00 | 0.00 | 0.00 | 92 | 1018.0 |
| 20260502064623 | 33 | 6 | 1.7 | 1.7 | 0.00 | 0.00 | 0.00 | 91 | 1018.0 |
| 20260502064124 | 33 | 14 | 1.7 | 2.6 | 0.00 | 0.00 | 0.00 | 91 | 1017.9 |
| 20260502063624 | 33 | 10 | 1.7 | 1.7 | 0.00 | 0.00 | 0.00 | 91 | 1017.8 |
| 20260502063124 | 33 | 18 | 1.7 | 2.6 | 0.00 | 0.00 | 0.00 | 91 | 1017.7 |
| 20260502062624 | 32 | 10 | 1.7 | 1.7 | 0.00 | 0.00 | 0.00 | 90 | 1017.7 |
| 20260502062122 | 33 | 6 | 1.7 | 1.7 | 0.00 | 0.00 | 0.00 | 90 | 1017.7 |
| 20260502061622 | 33 | 14 | 1.7 | 2.6 | 0.00 | 0.00 | 0.00 | 90 | 1017.6 |
| 20260502061122 | 33 | 1 | 2.6 | 2.6 | 0.00 | 0.00 | 0.00 | 90 | 1017.6 |
| 20260502060623 | 33 | 3 | 1.7 | 1.7 | 0.00 | 0.00 | 0.00 | 90 | 1017.6 |
| 20260502060123 | 33 | 15 | 1.7 | 2.6 | 0.00 | 0.00 | 0.00 | 89 | 1017.5 |
| 20260502055623 | 33 | 7 | 1.7 | 2.6 | 0.00 | 0.00 | 0.00 | 88 | 1017.4 |
| 20260502055121 | 34 | 23 | 1.7 | 1.7 | 0.00 | 0.00 | 0.00 | 87 | 1017.4 |
| 20260502054621 | 34 | 17 | 0.9 | 0.9 | 0.00 | 0.00 | 0.00 | 87 | 1017.3 |
| 20260502054122 | 34 | 7 | 1.7 | 1.7 | 0.00 | 0.00 | 0.00 | 87 | 1017.3 |
| 20260502053622 | 35 | 8 | 1.7 | 2.6 | 0.00 | 0.00 | 0.00 | 87 | 1017.2 |
| 20260502053122 | 35 | 13 | 2.6 | 1.7 | 0.00 | 0.00 | 0.00 | 87 | 1017.2 |
| 20260502052623 | 35 | 13 | 2.6 | 1.7 | 0.00 | 0.00 | 0.00 | 87 | 1017.1 |
| 20260502052120 | 35 | 6 | 2.6 | 1.7 | 0.00 | 0.00 | 0.00 | 87 | 1017.1 |
| 20260502051621 | 35 | 10 | 2.6 | 3.5 | 0.00 | 0.00 | 0.00 | 87 | 1017.1 |
| 20260502051121 | 34 | 14 | 1.7 | 2.6 | 0.00 | 0.00 | 0.00 | 86 | 1017.0 |
| 20260502050621 | 35 | 17 | 1.7 | 1.7 | 0.00 | 0.00 | 0.00 | 84 | 1016.9 |
| 20260502050121 | 35 | 7 | 1.7 | 2.6 | 0.00 | 0.00 | 0.00 | 83 | 1016.9 |